| time (UTC) | temp F | wind direction | speed MPH | gust MPH | rain 1hr in | rain 24hr in | rain mn in | humidity % | barometer mb |
| 20260505223502 | 47 | 181 | 0.0 | 0.0 | 0.12 | 1.40 | 1.40 | 99 | 1006.5 |
| 20260505222958 | 47 | 66 | 0.0 | 0.0 | 0.12 | 1.39 | 1.39 | 99 | 1006.4 |
| 20260505222455 | 47 | 37 | 1.0 | 2.0 | 0.12 | 1.38 | 1.38 | 99 | 1006.3 |
| 20260505221950 | 47 | 128 | 0.0 | 0.0 | 0.17 | 1.37 | 1.37 | 99 | 1006.4 |
| 20260505221448 | 47 | 108 | 0.0 | 0.0 | 0.24 | 1.36 | 1.36 | 99 | 1006.4 |
| 20260505220945 | 47 | 50 | 1.0 | 1.0 | 0.24 | 1.34 | 1.34 | 99 | 1006.3 |
| 20260505220442 | 47 | 53 | 0.0 | 1.0 | 0.19 | 1.32 | 1.32 | 99 | 1006.7 |
| 20260505215939 | 47 | 97 | 0.0 | 0.0 | 0.24 | 1.31 | 1.31 | 99 | 1006.6 |
| 20260505215438 | 48 | 87 | 0.0 | 0.0 | 0.19 | 1.29 | 1.29 | 99 | 1006.8 |
| 20260505214935 | 48 | 117 | 0.0 | 0.0 | 0.07 | 1.27 | 1.27 | 99 | 1006.5 |
| 20260505214433 | 48 | 48 | 0.0 | 0.0 | 0.12 | 1.27 | 1.27 | 99 | 1006.7 |
| 20260505213930 | 48 | 0 | 0.0 | 0.0 | 0.05 | 1.26 | 1.26 | 99 | 1006.5 |
| 20260505213427 | 48 | 46 | 0.0 | 1.0 | 0.00 | 1.25 | 1.25 | 99 | 1006.6 |
| 20260505212923 | 49 | 75 | 0.0 | 0.0 | 0.00 | 1.25 | 1.25 | 99 | 1006.3 |
| 20260505212420 | 49 | 63 | 0.0 | 1.0 | 0.00 | 1.25 | 1.25 | 99 | 1006.6 |
| 20260505211916 | 49 | 12 | 1.0 | 1.0 | 0.00 | 1.25 | 1.25 | 99 | 1006.4 |
| 20260505211414 | 49 | 62 | 0.0 | 1.0 | 0.00 | 1.25 | 1.25 | 99 | 1006.4 |
| 20260505210910 | 49 | 130 | 0.0 | 0.0 | 0.00 | 1.25 | 1.25 | 99 | 1006.5 |
| 20260505210408 | 49 | 46 | 1.0 | 1.0 | 0.00 | 1.25 | 1.25 | 99 | 1006.3 |
| 20260505205905 | 50 | 26 | 0.0 | 1.0 | 0.00 | 1.25 | 1.25 | 99 | 1006.2 |
| 20260505205403 | 50 | 90 | 0.0 | 0.0 | 0.00 | 1.25 | 1.25 | 99 | 1006.2 |
| 20260505204900 | 50 | 41 | 0.0 | 0.0 | 0.00 | 1.25 | 1.25 | 99 | 1006.1 |
| 20260505204357 | 50 | 94 | 0.0 | 0.0 | 0.00 | 1.25 | 1.25 | 99 | 1006.0 |
| 20260505203855 | 50 | 32 | 0.0 | 0.0 | 0.00 | 1.25 | 1.25 | 99 | 1005.8 |
| 20260505203350 | 50 | 66 | 0.0 | 1.0 | 0.00 | 1.25 | 1.25 | 99 | 1005.7 |
| 20260505202847 | 50 | 355 | 0.0 | 1.0 | 0.00 | 1.25 | 1.25 | 99 | 1006.0 |
| 20260505202343 | 51 | 30 | 0.0 | 1.0 | 0.00 | 1.25 | 1.25 | 99 | 1005.8 |
| 20260505201840 | 51 | 134 | 0.0 | 0.0 | 0.00 | 1.25 | 1.25 | 99 | 1005.8 |
| 20260505201337 | 52 | 58 | 0.0 | 0.0 | 0.00 | 1.25 | 1.25 | 99 | 1005.6 |
| 20260505200836 | 52 | 132 | 0.0 | 0.0 | 0.00 | 1.25 | 1.25 | 99 | 1005.7 |
| 20260505200332 | 52 | 119 | 0.0 | 0.0 | 0.00 | 1.25 | 1.25 | 99 | 1005.4 |
| 20260505195828 | 52 | 134 | 0.0 | 0.0 | 0.00 | 1.25 | 1.25 | 99 | 1005.7 |
| 20260505195325 | 53 | 111 | 0.0 | 0.0 | 0.00 | 1.25 | 1.25 | 99 | 1005.8 |
| 20260505194822 | 53 | 126 | 0.0 | 0.0 | 0.00 | 1.25 | 1.25 | 99 | 1005.7 |
| 20260505194319 | 53 | 136 | 0.0 | 0.0 | 0.00 | 1.25 | 1.25 | 99 | 1005.6 |
| 20260505193814 | 53 | 133 | 0.0 | 0.0 | 0.07 | 1.25 | 1.25 | 99 | 1005.5 |
| 20260505193313 | 53 | 112 | 0.0 | 0.0 | 0.07 | 1.25 | 1.25 | 99 | 1005.5 |
| 20260505192810 | 53 | 147 | 0.0 | 0.0 | 0.00 | 1.24 | 1.24 | 99 | 1005.8 |
| 20260505192310 | 53 | 156 | 0.0 | 0.0 | 0.00 | 1.24 | 1.24 | 99 | 1005.8 |
| 20260505191806 | 53 | 140 | 0.0 | 0.0 | 0.00 | 1.24 | 1.24 | 99 | 1005.7 |
| 20260505191304 | 53 | 141 | 0.0 | 0.0 | 0.00 | 1.24 | 1.24 | 99 | 1005.6 |
| 20260505190800 | 53 | 113 | 0.0 | 0.0 | 0.00 | 1.24 | 1.24 | 99 | 1005.6 |
| 20260505190256 | 53 | 153 | 0.0 | 0.0 | 0.00 | 1.24 | 1.24 | 99 | 1005.5 |
| 20260505185752 | 53 | 139 | 0.0 | 0.0 | 0.05 | 1.24 | 1.24 | 99 | 1005.6 |
| 20260505185248 | 54 | 125 | 0.0 | 0.0 | 0.05 | 1.24 | 1.24 | 99 | 1005.8 |
| 20260505184744 | 54 | 165 | 0.0 | 0.0 | 0.07 | 1.23 | 1.23 | 99 | 1005.6 |
| 20260505184242 | 53 | 104 | 0.0 | 0.0 | 0.07 | 1.23 | 1.23 | 99 | 1005.6 |
| 20260505183738 | 53 | 103 | 0.0 | 0.0 | 0.24 | 1.22 | 1.22 | 99 | 1005.3 |
| 20260505183236 | 53 | 121 | 0.0 | 0.0 | 0.35 | 1.22 | 1.22 | 99 | 1005.5 |
| 20260505182732 | 53 | 151 | 0.0 | 0.0 | 0.19 | 1.19 | 1.19 | 99 | 1005.6 |
| 20260505182229 | 53 | 139 | 0.0 | 0.0 | 0.07 | 1.17 | 1.17 | 99 | 1005.4 |
| 20260505181725 | 53 | 118 | 0.0 | 0.0 | 0.07 | 1.16 | 1.16 | 99 | 1005.2 |
| 20260505181223 | 53 | 84 | 0.0 | 0.0 | 0.07 | 1.16 | 1.16 | 99 | 1005.2 |
| 20260505180720 | 53 | 126 | 0.0 | 0.0 | 0.12 | 1.15 | 1.15 | 99 | 1005.4 |
| 20260505180216 | 53 | 120 | 0.0 | 0.0 | 0.17 | 1.15 | 1.15 | 99 | 1005.6 |
| 20260505175713 | 53 | 128 | 0.0 | 0.0 | 0.12 | 1.14 | 1.14 | 99 | 1005.7 |
| 20260505175209 | 53 | 143 | 0.0 | 0.0 | 0.12 | 1.12 | 1.12 | 99 | 1006.0 |
| 20260505174706 | 52 | 145 | 0.0 | 0.0 | 0.12 | 1.11 | 1.11 | 99 | 1005.8 |
| 20260505174202 | 52 | 143 | 0.0 | 0.0 | 0.12 | 1.10 | 1.10 | 99 | 1006.1 |
| 20260505173659 | 52 | 144 | 0.0 | 0.0 | 0.12 | 1.09 | 1.09 | 99 | 1006.3 |
| 20260505173155 | 52 | 136 | 0.0 | 0.0 | 0.12 | 1.08 | 1.08 | 99 | 1006.4 |
| 20260505172653 | 52 | 124 | 0.0 | 0.0 | 0.12 | 1.07 | 1.07 | 99 | 1006.4 |
| 20260505172150 | 53 | 140 | 0.0 | 0.0 | 0.14 | 1.06 | 1.06 | 99 | 1006.7 |
| 20260505171649 | 53 | 142 | 0.0 | 0.0 | 0.12 | 1.05 | 1.05 | 99 | 1006.4 |
| 20260505171147 | 53 | 73 | 0.0 | 0.0 | 0.05 | 1.04 | 1.04 | 99 | 1006.1 |
| 20260505170644 | 54 | 118 | 0.0 | 0.0 | 0.00 | 1.03 | 1.03 | 99 | 1006.6 |
| 20260505170140 | 53 | 164 | 0.0 | 0.0 | 0.07 | 1.03 | 1.03 | 99 | 1006.8 |
| 20260505165635 | 53 | 166 | 0.0 | 0.0 | 0.07 | 1.03 | 1.03 | 99 | 1006.7 |
| 20260505165131 | 53 | 174 | 0.0 | 0.0 | 0.00 | 1.02 | 1.02 | 99 | 1006.8 |
| 20260505164626 | 53 | 160 | 0.0 | 0.0 | 0.00 | 1.02 | 1.02 | 99 | 1006.4 |
| 20260505164125 | 53 | 152 | 0.0 | 0.0 | 0.00 | 1.02 | 1.02 | 99 | 1006.0 |
| 20260505163623 | 54 | 166 | 0.0 | 0.0 | 0.00 | 1.02 | 1.02 | 99 | 1006.5 |
| 20260505163120 | 54 | 178 | 0.0 | 0.0 | 0.00 | 1.02 | 1.02 | 99 | 1006.7 |
| 20260505162617 | 57 | 29 | 0.0 | 1.0 | 0.00 | 1.02 | 1.02 | 99 | 1006.7 |
| 20260505162115 | 57 | 231 | 0.0 | 0.0 | 0.00 | 1.02 | 1.02 | 99 | 1006.4 |
| 20260505161612 | 58 | 165 | 0.0 | 0.0 | 0.00 | 1.02 | 1.02 | 99 | 1006.5 |
| 20260505161109 | 57 | 163 | 0.0 | 0.0 | 0.00 | 1.02 | 1.02 | 99 | 1006.4 |
| 20260505160607 | 57 | 175 | 0.0 | 0.0 | 0.00 | 1.02 | 1.02 | 99 | 1006.5 |
| 20260505160104 | 57 | 223 | 0.0 | 0.0 | 0.00 | 1.02 | 1.02 | 99 | 1006.4 |
| 20260505153044 | 57 | 177 | 0.0 | 0.0 | 0.12 | 1.00 | 1.00 | 99 | 1006.5 |
| 20260505152540 | 57 | 207 | 0.0 | 0.0 | 0.12 | 0.99 | 0.99 | 99 | 1006.6 |
| 20260505152036 | 57 | 220 | 0.0 | 0.0 | 0.05 | 0.98 | 0.98 | 99 | 1006.5 |
| 20260505151531 | 57 | 166 | 0.0 | 0.0 | 0.00 | 0.97 | 0.97 | 99 | 1006.2 |
| 20260505151029 | 57 | 146 | 0.0 | 0.0 | 0.00 | 0.97 | 0.97 | 99 | 1005.5 |
| 20260505150525 | 57 | 166 | 0.0 | 0.0 | 0.00 | 0.97 | 0.97 | 99 | 1005.9 |
| 20260505140450 | 57 | 184 | 0.0 | 0.0 | 0.00 | 0.95 | 0.95 | 99 | 1005.8 |
| 20260505124903 | 57 | 179 | 0.0 | 0.0 | 0.00 | 0.95 | 0.95 | 99 | 1005.6 |
| 20260505124401 | 57 | 169 | 0.0 | 0.0 | 0.00 | 0.95 | 0.95 | 99 | 1005.5 |
| 20260505123856 | 57 | 164 | 0.0 | 0.0 | 0.00 | 0.95 | 0.95 | 99 | 1005.6 |
| 20260505123353 | 57 | 172 | 0.0 | 0.0 | 0.00 | 0.95 | 0.95 | 99 | 1005.3 |
| 20260505122849 | 57 | 159 | 0.0 | 0.0 | 0.00 | 0.95 | 0.95 | 99 | 1005.5 |
| 20260505122347 | 56 | 159 | 0.0 | 0.0 | 0.00 | 0.95 | 0.95 | 99 | 1005.3 |
| 20260505121843 | 56 | 168 | 0.0 | 0.0 | 0.00 | 0.95 | 0.95 | 99 | 1005.3 |
| 20260505121340 | 56 | 155 | 0.0 | 0.0 | 0.00 | 0.95 | 0.95 | 99 | 1005.2 |
| 20260505120836 | 56 | 160 | 0.0 | 0.0 | 0.00 | 0.95 | 0.95 | 99 | 1005.4 |
| 20260505120332 | 56 | 159 | 0.0 | 0.0 | 0.00 | 0.95 | 0.95 | 99 | 1005.3 |
| 20260505115831 | 55 | 159 | 0.0 | 0.0 | 0.00 | 0.95 | 0.95 | 99 | 1005.3 |
| 20260505115328 | 55 | 159 | 0.0 | 0.0 | 0.00 | 0.95 | 0.95 | 99 | 1005.3 |
| 20260505114826 | 55 | 168 | 0.0 | 0.0 | 0.00 | 0.95 | 0.95 | 99 | 1005.1 |
| 20260505114323 | 55 | 154 | 0.0 | 0.0 | 0.00 | 0.95 | 0.95 | 99 | 1005.2 |
| 20260505113819 | 55 | 180 | 0.0 | 0.0 | 0.00 | 0.95 | 0.95 | 99 | 1005.3 |
| 20260505113315 | 55 | 190 | 0.0 | 0.0 | 0.00 | 0.95 | 0.95 | 99 | 1005.1 |
| 20260505112811 | 55 | 167 | 0.0 | 0.0 | 0.00 | 0.95 | 0.95 | 99 | 1004.7 |
| 20260505112309 | 55 | 158 | 0.0 | 0.0 | 0.00 | 0.95 | 0.95 | 99 | 1004.5 |
| 20260505111804 | 55 | 167 | 0.0 | 0.0 | 0.00 | 0.95 | 0.95 | 99 | 1004.6 |
| 20260505111300 | 55 | 171 | 0.0 | 0.0 | 0.00 | 0.95 | 0.95 | 99 | 1004.2 |
| 20260505110756 | 55 | 158 | 0.0 | 0.0 | 0.00 | 0.95 | 0.95 | 99 | 1003.8 |
| 20260505110254 | 55 | 153 | 0.0 | 0.0 | 0.00 | 0.95 | 0.95 | 99 | 1004.2 |
| 20260505101728 | 55 | 167 | 0.0 | 0.0 | 0.00 | 0.95 | 0.95 | 99 | 1004.5 |
| 20260505101224 | 55 | 173 | 0.0 | 0.0 | 0.00 | 0.95 | 0.95 | 99 | 1004.5 |
| 20260505100720 | 55 | 200 | 0.0 | 0.0 | 0.00 | 0.95 | 0.95 | 99 | 1004.2 |
| 20260505100218 | 55 | 169 | 0.0 | 0.0 | 0.00 | 0.95 | 0.95 | 99 | 1004.4 |
| 20260505095713 | 55 | 223 | 0.0 | 0.0 | 0.00 | 0.95 | 0.95 | 99 | 1004.2 |
| 20260505095211 | 55 | 183 | 0.0 | 0.0 | 0.00 | 0.95 | 0.95 | 99 | 1004.2 |
| 20260505094706 | 55 | 172 | 0.0 | 0.0 | 0.00 | 0.95 | 0.95 | 99 | 1003.6 |
| 20260505094203 | 55 | 165 | 0.0 | 0.0 | 0.00 | 0.95 | 0.95 | 99 | 1003.6 |
| 20260505093659 | 55 | 177 | 0.0 | 0.0 | 0.00 | 0.95 | 0.95 | 99 | 1003.9 |
| 20260505093157 | 55 | 150 | 0.0 | 0.0 | 0.00 | 0.95 | 0.95 | 99 | 1004.1 |
| 20260505092653 | 55 | 178 | 0.0 | 0.0 | 0.00 | 0.95 | 0.95 | 99 | 1003.7 |
| 20260505092152 | 55 | 224 | 0.0 | 0.0 | 0.00 | 0.95 | 0.95 | 99 | 1003.8 |
| 20260505091649 | 55 | 230 | 0.0 | 0.0 | 0.00 | 0.95 | 0.95 | 99 | 1003.9 |
| 20260505091147 | 55 | 210 | 0.0 | 0.0 | 0.00 | 0.95 | 0.95 | 99 | 1003.8 |
| 20260505090644 | 55 | 160 | 0.0 | 0.0 | 0.07 | 0.95 | 0.95 | 99 | 1003.3 |
| 20260505090143 | 55 | 119 | 0.0 | 0.0 | 0.12 | 0.95 | 0.95 | 99 | 1002.5 |
| 20260505085639 | 55 | 207 | 0.0 | 0.0 | 0.05 | 0.94 | 0.94 | 99 | 1003.2 |
| 20260505085138 | 55 | 161 | 0.0 | 1.0 | 0.14 | 0.93 | 0.93 | 99 | 1003.5 |
| 20260505084635 | 55 | 164 | 0.0 | 0.0 | 0.19 | 0.93 | 0.93 | 99 | 1003.0 |
| 20260505084133 | 55 | 165 | 0.0 | 0.0 | 0.17 | 0.91 | 0.91 | 99 | 1003.4 |
| 20260505083630 | 55 | 178 | 0.0 | 0.0 | 0.19 | 0.90 | 0.90 | 99 | 1003.6 |
| 20260505083127 | 55 | 145 | 0.0 | 0.0 | 0.24 | 0.88 | 0.88 | 99 | 1003.8 |
| 20260505082623 | 55 | 154 | 0.0 | 0.0 | 0.35 | 0.87 | 0.87 | 99 | 1004.1 |
| 20260505082120 | 55 | 151 | 0.0 | 0.0 | 0.28 | 0.85 | 0.85 | 99 | 1004.0 |
| 20260505081616 | 55 | 151 | 0.0 | 0.0 | 0.31 | 0.82 | 0.82 | 99 | 1003.9 |
| 20260505081114 | 55 | 144 | 0.0 | 0.0 | 0.31 | 0.80 | 0.80 | 99 | 1004.4 |
| 20260505080610 | 55 | 145 | 0.0 | 0.0 | 0.24 | 0.77 | 0.77 | 99 | 1004.7 |
| 20260505080106 | 55 | 144 | 0.0 | 0.0 | 0.19 | 0.75 | 0.75 | 99 | 1005.2 |
| 20260505075602 | 55 | 156 | 0.0 | 0.0 | 0.19 | 0.73 | 0.73 | 99 | 1005.6 |
| 20260505075059 | 55 | 158 | 0.0 | 0.0 | 0.28 | 0.72 | 0.72 | 99 | 1005.8 |
| 20260505074556 | 55 | 162 | 0.0 | 0.0 | 0.38 | 0.71 | 0.71 | 99 | 1005.8 |
| 20260505074053 | 55 | 161 | 0.0 | 0.0 | 0.31 | 0.68 | 0.68 | 99 | 1005.8 |
| 20260505073550 | 55 | 147 | 0.0 | 0.0 | 0.12 | 0.65 | 0.65 | 99 | 1005.6 |
| 20260505073049 | 55 | 141 | 0.0 | 0.0 | 0.05 | 0.63 | 0.63 | 99 | 1005.6 |
| 20260505072549 | 55 | 165 | 0.0 | 0.0 | 0.12 | 0.63 | 0.63 | 99 | 1005.8 |
| 20260505072046 | 55 | 134 | 0.0 | 0.0 | 0.12 | 0.62 | 0.62 | 99 | 1005.2 |
| 20260505071541 | 55 | 104 | 0.0 | 0.0 | 0.24 | 0.61 | 0.61 | 99 | 1005.2 |
| 20260505071040 | 55 | 132 | 0.0 | 0.0 | 0.78 | 0.60 | 0.60 | 99 | 1005.6 |
| 20260505070537 | 55 | 134 | 0.0 | 0.0 | 0.78 | 0.58 | 0.58 | 99 | 1005.4 |
| 20260505070033 | 56 | 161 | 0.0 | 0.0 | 0.24 | 0.47 | 0.47 | 99 | 1005.9 |
| 20260505065529 | 55 | 136 | 0.0 | 0.0 | 0.26 | 0.45 | 0.45 | 99 | 1005.0 |
| 20260505065026 | 55 | 133 | 0.0 | 0.0 | 0.31 | 0.43 | 0.43 | 98 | 1004.5 |
| 20260505064523 | 55 | 138 | 0.0 | 0.0 | 0.28 | 0.41 | 0.41 | 98 | 1004.4 |
| 20260505064021 | 55 | 140 | 0.0 | 0.0 | 0.35 | 0.39 | 0.39 | 98 | 1004.6 |
| 20260505063518 | 56 | 128 | 0.0 | 0.0 | 0.24 | 0.36 | 0.36 | 98 | 1004.4 |
| 20260505063014 | 55 | 138 | 0.0 | 0.0 | 0.17 | 0.33 | 0.33 | 98 | 1004.6 |
| 20260505062511 | 55 | 137 | 0.0 | 0.0 | 0.26 | 0.32 | 0.32 | 98 | 1004.4 |
| 20260505062008 | 56 | 99 | 0.0 | 0.0 | 0.19 | 0.30 | 0.30 | 98 | 1004.0 |
| 20260505061506 | 56 | 141 | 0.0 | 0.0 | 0.24 | 0.28 | 0.28 | 98 | 1004.6 |
| 20260505061003 | 56 | 103 | 0.0 | 0.0 | 0.24 | 0.27 | 0.27 | 97 | 1004.2 |
| 20260505060500 | 56 | 136 | 0.0 | 0.0 | 0.24 | 0.25 | 0.25 | 97 | 1004.6 |
| 20260505055956 | 57 | 117 | 0.0 | 0.0 | 0.31 | 0.23 | 0.23 | 97 | 1005.0 |
| 20260505055452 | 58 | 117 | 0.0 | 0.0 | 0.31 | 0.21 | 0.21 | 97 | 1005.4 |
| 20260505054949 | 58 | 204 | 0.0 | 0.0 | 0.19 | 0.18 | 0.18 | 97 | 1005.4 |
| 20260505054447 | 58 | 253 | 5.0 | 5.0 | 0.24 | 0.16 | 0.16 | 97 | 1005.1 |
| 20260505053945 | 58 | 258 | 3.0 | 3.0 | 0.24 | 0.15 | 0.15 | 97 | 1004.7 |
| 20260505053441 | 58 | 190 | 0.0 | 0.0 | 0.07 | 0.12 | 0.12 | 96 | 1004.2 |
| 20260505052938 | 58 | 223 | 2.0 | 2.0 | 0.05 | 0.11 | 0.11 | 96 | 1003.8 |
| 20260505052435 | 58 | 205 | 0.0 | 0.0 | 0.05 | 0.11 | 0.11 | 95 | 1003.6 |
| 20260505051932 | 59 | 181 | 0.0 | 0.0 | 0.19 | 0.10 | 0.10 | 94 | 1003.5 |
| 20260505051429 | 59 | 243 | 3.0 | 3.0 | 0.54 | 0.10 | 0.10 | 93 | 1003.1 |
| 20260505050927 | 60 | 190 | 2.0 | 2.0 | 0.54 | 0.09 | 0.09 | 89 | 1003.2 |
| 20260505050425 | 62 | 213 | 3.0 | 3.0 | 0.07 | 0.01 | 0.01 | 84 | 1002.7 |
| 20260505041353 | 67 | 233 | 3.0 | 3.0 | 0.00 | 0.00 | 0.00 | 56 | 1001.6 |
| 20260505040850 | 67 | 246 | 3.0 | 5.0 | 0.00 | 0.00 | 0.00 | 58 | 1001.6 |
| 20260505040348 | 67 | 232 | 3.0 | 3.0 | 0.00 | 0.00 | 0.00 | 57 | 1001.4 |
| 20260505035844 | 67 | 231 | 2.0 | 3.0 | 0.00 | 0.03 | 0.03 | 57 | 1001.2 |
| 20260505035340 | 68 | 234 | 2.0 | 3.0 | 0.00 | 0.03 | 0.03 | 58 | 1001.3 |
| 20260505034838 | 67 | 213 | 2.0 | 2.0 | 0.00 | 0.03 | 0.03 | 56 | 1001.4 |
| 20260505034334 | 67 | 244 | 3.0 | 5.0 | 0.00 | 0.03 | 0.03 | 58 | 1001.5 |
| 20260505033831 | 67 | 197 | 1.0 | 2.0 | 0.00 | 0.03 | 0.03 | 58 | 1001.7 |
| 20260505033328 | 67 | 220 | 2.0 | 2.0 | 0.00 | 0.03 | 0.03 | 59 | 1001.3 |
| 20260505032826 | 67 | 264 | 2.0 | 2.0 | 0.00 | 0.03 | 0.03 | 58 | 1001.4 |
| 20260505032322 | 67 | 243 | 2.0 | 2.0 | 0.00 | 0.03 | 0.03 | 57 | 1001.6 |
| 20260505031820 | 67 | 273 | 3.0 | 3.0 | 0.00 | 0.03 | 0.03 | 58 | 1001.7 |
| 20260505031316 | 67 | 244 | 3.0 | 5.0 | 0.00 | 0.03 | 0.03 | 58 | 1001.6 |
| 20260505030813 | 68 | 211 | 3.0 | 3.0 | 0.00 | 0.03 | 0.03 | 59 | 1001.7 |
| 20260505030310 | 68 | 229 | 2.0 | 2.0 | 0.00 | 0.03 | 0.03 | 58 | 1001.8 |
| 20260505025804 | 68 | 213 | 2.0 | 2.0 | 0.00 | 0.03 | 0.03 | 59 | 1001.8 |
| 20260505025304 | 68 | 251 | 3.0 | 5.0 | 0.00 | 0.03 | 0.03 | 59 | 1001.8 |
| 20260505024801 | 68 | 211 | 2.0 | 2.0 | 0.00 | 0.03 | 0.03 | 57 | 1001.9 |
| 20260505024258 | 68 | 236 | 3.0 | 3.0 | 0.00 | 0.03 | 0.03 | 58 | 1001.8 |
| 20260505023755 | 68 | 193 | 2.0 | 2.0 | 0.00 | 0.03 | 0.03 | 58 | 1001.9 |
| 20260505023252 | 68 | 191 | 1.0 | 1.0 | 0.00 | 0.03 | 0.03 | 58 | 1001.9 |
| 20260505022749 | 68 | 233 | 2.0 | 2.0 | 0.00 | 0.03 | 0.03 | 57 | 1001.9 |
| 20260505022246 | 68 | 204 | 1.0 | 2.0 | 0.00 | 0.03 | 0.03 | 58 | 1001.8 |
| 20260505021743 | 69 | 232 | 1.0 | 2.0 | 0.00 | 0.03 | 0.03 | 58 | 1002.2 |
| 20260505021240 | 68 | 239 | 2.0 | 3.0 | 0.00 | 0.03 | 0.03 | 58 | 1002.0 |
| 20260505020736 | 68 | 213 | 1.0 | 2.0 | 0.00 | 0.03 | 0.03 | 58 | 1001.8 |
| 20260505020231 | 69 | 244 | 3.0 | 3.0 | 0.00 | 0.03 | 0.03 | 58 | 1001.7 |
| 20260505015729 | 69 | 189 | 2.0 | 2.0 | 0.00 | 0.03 | 0.03 | 59 | 1001.7 |
| 20260505015225 | 69 | 228 | 3.0 | 3.0 | 0.00 | 0.03 | 0.03 | 58 | 1001.7 |
| 20260505014722 | 69 | 200 | 2.0 | 2.0 | 0.00 | 0.03 | 0.03 | 58 | 1001.7 |
| 20260505014220 | 69 | 185 | 1.0 | 2.0 | 0.00 | 0.03 | 0.03 | 58 | 1001.4 |
| 20260505013716 | 69 | 243 | 3.0 | 3.0 | 0.00 | 0.03 | 0.03 | 59 | 1001.6 |
| 20260505013214 | 69 | 273 | 3.0 | 3.0 | 0.00 | 0.03 | 0.03 | 59 | 1001.5 |
| 20260505012712 | 68 | 207 | 1.0 | 2.0 | 0.00 | 0.03 | 0.03 | 59 | 1001.5 |
| 20260505012209 | 68 | 256 | 3.0 | 3.0 | 0.00 | 0.03 | 0.03 | 60 | 1001.0 |
| 20260505011704 | 69 | 218 | 2.0 | 2.0 | 0.00 | 0.03 | 0.03 | 59 | 1001.1 |
| 20260505011202 | 69 | 192 | 0.0 | 0.0 | 0.00 | 0.03 | 0.03 | 59 | 1001.0 |
| 20260505010657 | 69 | 241 | 3.0 | 3.0 | 0.00 | 0.03 | 0.03 | 58 | 1000.7 |
| 20260505010154 | 69 | 214 | 3.0 | 3.0 | 0.00 | 0.03 | 0.03 | 57 | 1000.9 |
| 20260505005650 | 69 | 207 | 1.0 | 1.0 | 0.00 | 0.03 | 0.03 | 59 | 1000.8 |
| 20260505005147 | 69 | 247 | 2.0 | 2.0 | 0.00 | 0.03 | 0.03 | 58 | 1000.6 |
| 20260505004644 | 70 | 234 | 2.0 | 2.0 | 0.00 | 0.03 | 0.03 | 56 | 1000.5 |
| 20260505004141 | 70 | 230 | 3.0 | 5.0 | 0.00 | 0.03 | 0.03 | 56 | 1000.6 |
| 20260505003638 | 70 | 236 | 2.0 | 2.0 | 0.00 | 0.03 | 0.03 | 56 | 1000.6 |
| 20260505003136 | 70 | 245 | 3.0 | 3.0 | 0.00 | 0.03 | 0.03 | 57 | 1000.6 |
| 20260505002631 | 70 | 190 | 2.0 | 2.0 | 0.00 | 0.03 | 0.03 | 57 | 1000.8 |
| 20260505002130 | 70 | 182 | 2.0 | 2.0 | 0.00 | 0.03 | 0.03 | 57 | 1000.5 |
| 20260505001626 | 71 | 192 | 1.0 | 1.0 | 0.00 | 0.03 | 0.03 | 56 | 1000.6 |
| 20260505001124 | 71 | 207 | 2.0 | 2.0 | 0.00 | 0.03 | 0.03 | 56 | 1000.6 |
| 20260505000621 | 71 | 211 | 4.0 | 5.0 | 0.00 | 0.03 | 0.03 | 56 | 1000.6 |
| 20260505000119 | 71 | 264 | 3.0 | 3.0 | 0.00 | 0.03 | 0.03 | 53 | 1000.6 |
| 20260504235615 | 71 | 232 | 3.0 | 3.0 | 0.00 | 0.03 | 0.03 | 54 | 1000.6 |
| 20260504235112 | 71 | 211 | 2.0 | 3.0 | 0.00 | 0.03 | 0.03 | 55 | 1000.7 |
| 20260504234609 | 72 | 245 | 3.0 | 5.0 | 0.00 | 0.03 | 0.03 | 55 | 1001.0 |
| 20260504234106 | 72 | 220 | 3.0 | 3.0 | 0.00 | 0.03 | 0.03 | 53 | 1001.0 |
| 20260504233601 | 72 | 201 | 3.0 | 3.0 | 0.00 | 0.03 | 0.03 | 54 | 1001.1 |
| 20260504233058 | 73 | 218 | 3.0 | 3.0 | 0.00 | 0.03 | 0.03 | 52 | 1001.2 |
| 20260504232555 | 73 | 201 | 3.0 | 3.0 | 0.00 | 0.03 | 0.03 | 51 | 1001.4 |
| 20260504232053 | 73 | 237 | 4.0 | 6.0 | 0.00 | 0.03 | 0.03 | 53 | 1001.5 |
| 20260504231549 | 73 | 248 | 5.0 | 6.0 | 0.00 | 0.03 | 0.03 | 51 | 1001.5 |
| 20260504231045 | 73 | 252 | 6.0 | 7.0 | 0.00 | 0.03 | 0.03 | 52 | 1001.6 |
| 20260504230541 | 73 | 250 | 3.0 | 3.0 | 0.00 | 0.03 | 0.03 | 51 | 1001.4 |
| 20260504230041 | 73 | 215 | 3.0 | 3.0 | 0.00 | 0.03 | 0.03 | 50 | 1001.5 |
| 20260504225537 | 73 | 249 | 4.0 | 5.0 | 0.00 | 0.03 | 0.03 | 49 | 1001.3 |
| 20260504225034 | 73 | 233 | 3.0 | 5.0 | 0.00 | 0.03 | 0.03 | 50 | 1001.4 |
| 20260504224531 | 73 | 245 | 4.0 | 5.0 | 0.00 | 0.03 | 0.03 | 49 | 1001.5 |
| 20260504224028 | 74 | 236 | 3.0 | 3.0 | 0.00 | 0.03 | 0.03 | 48 | 1001.5 |